Voltar ao catálogo

OBJECT B

AtivoVLEO
NORAD 100081·UNKNOWN·🇮🇳 India

Lançado Jul 18, 2026 de Satish Dhawan Space Centre

Loading…

Próximas Passagens (próximas 24 horas)

TLE

AtualizadoSource: Space-Track

Época: Sep 14, 2026, 11:56 UTC

1 A0081U 26164B   26257.49744598  .00031206  00000-0  70129-3 0  9994
2 A0081  59.9234  75.4953 0014745   9.5112 350.6252 15.43088947  8971

Acompanhe OBJECT B em tempo real com AllMySat

Download on the App Store